Zurück zum Katalog

COSMOS 839 DEB

AktivUNKNOWN
NORAD 10621·DEBRIS·🇷🇺 Russia

Gestartet Jul 8, 1976 von Plesetsk Cosmodrome

Loading…

Nächste Überflüge (nächste 24 Stunden)

TLE

AktuellSource: Space-Track

Epoche: Sep 14, 2026, 14:36 UTC

1 10621U 76067AV  26257.60871020 -.00000001  00000-0  21020-3 0  9992
2 10621  66.0249 139.0303 0668599 181.3654 189.0436 12.31133770254931

Verfolge COSMOS 839 DEB in Echtzeit mit AllMySat

Download on the App Store